Flag for Costa Rica Weather past 2 weeks in Alajuela, Costa Rica

Now
70 °F

Passing clouds.


Feels Like: 70 °F
Forecast: 68 / 86 °F
Wind: 2 mph from Southwest

Location: Juan Santamaria

Current Time: Apr 20, 2015 at 10:10:36 PM

Latest Report: Apr 20, 2015 at 9:00 PM


Visibility: N/A

Pressure: 30.00 "Hg

Humidity: 88%

Dew point: 66 °F

Location of AlajuelaLocation

Historic Weather in Alajuela — Graph

°F

Alajuela temperature yesterday

Maximum temperature yesterday: 88 °F (at 3:00 PM)
Minimum temperature yesterday: 68 °F (at 4:00 AM)
Average temperature yesterday: 76 °F

Past Weeks' High & Low Weather Summary

 TemperatureHumidityPressure
High88 °F (Apr 19, 3:00 PM)83% (Apr 15, 1:00 AM)30.09 "Hg (Apr 15, 1:00 AM)
Low66 °F (Apr 15, 1:00 AM)29% (Apr 6, 1:00 PM)29.89 "Hg (Apr 8, 4:00 PM)
Average75 °F59%29.99 "Hg
* Reported Apr 5 8:00 PM — Apr 20 8:00 PM, Alajuela, Weather by CustomWeather, © 2015

Note: Actual official high and low records may vary slightly from our data, if they occured in-between our weather recording intervals... More about our weather records

Advertising

Alajuela weather history for previous 24 hours

 ConditionsComfort  
Time TempWeatherWind HumidityBarometerVisibility
8:00 PM
Mon, Apr 20
72 °FPassing clouds.3 mph83%29.98 "HgN/A
7:00 PM73 °FPassing clouds.8 mph83%29.96 "HgN/A
6:00 PM75 °FPassing clouds.8 mph74%29.94 "HgN/A
5:00 PM79 °FBroken clouds.10 mph65%29.91 "HgN/A
4:00 PM81 °FBroken clouds.12 mph62%29.91 "HgN/A
3:00 PM82 °FBroken clouds.13 mph55%29.91 "HgN/A
2:00 PM86 °FBroken clouds.10 mph49%N/AN/A
1:00 PM84 °FBroken clouds.9 mph51%29.96 "HgN/A
12:00 PM82 °FBroken clouds.12 mph55%30.00 "HgN/A
11:00 AM86 °FScattered clouds.6 mph35%30.02 "HgN/A
10:00 AM84 °FPartly sunny.7 mph40%30.03 "HgN/A
9:00 AM81 °FPartly sunny.9 mph45%30.04 "HgN/A
8:00 AM79 °FPartly sunny.14 mph51%30.03 "HgN/A
7:00 AM75 °FScattered clouds.8 mph61%30.01 "HgN/A
6:00 AM70 °FScattered clouds.7 mph78%29.98 "HgN/A
5:00 AM70 °FPassing clouds.8 mph73%29.97 "HgN/A
4:00 AM72 °FPassing clouds.6 mph69%29.97 "HgN/A
3:00 AMN/APassing clouds.7 mphN/AN/AN/A
2:00 AM72 °FPassing clouds.5 mph69%29.97 "HgN/A
1:00 AM72 °FClear.3 mph73%29.99 "Hg10 mi
12:00 AM70 °FClear.6 mph78%30.00 "Hg10 mi
11:00 PM
Sun, Apr 19
70 °FClear.3 mph78%30.01 "Hg10 mi
10:00 PM72 °FClear.6 mph73%30.01 "Hg10 mi
Weather by CustomWeather, © 2015

See weather overviewHow to use our weather pages